This is the latest recevied weather packets stored in our database for station/object KQ4DLB-13. If no packets are shown the sender has not sent any weather packets the latest 10 day(s).
| Time | Temp. | Humidity | Pressure | Rain* | Wind** | Luminosity | Snow |
|---|---|---|---|---|---|---|---|
| 1777306202 | 24.44° C | 64% | 990.1 hPa | 0 mm | - | 822 W/m² | - |
| 1777305902 | 24.44° C | 65% | 990.1 hPa | 0 mm | - | 811 W/m² | - |
| 1777305602 | 24.44° C | 64% | 990.1 hPa | 0 mm | - | 801 W/m² | - |
| 1777305303 | 23.89° C | 65% | 990 hPa | 0 mm | - | 795 W/m² | - |
| 1777305003 | 23.89° C | 65% | 990 hPa | 0 mm | - | 815 W/m² | - |
| 1777304702 | 23.33° C | 67% | 989.9 hPa | 0 mm | - | 741 W/m² | - |
| 1777304402 | 22.78° C | 68% | 989.9 hPa | 0 mm | - | 575 W/m² | - |
| 1777304102 | 22.78° C | 69% | 989.9 hPa | 0 mm | - | 552 W/m² | - |
| 1777303802 | 22.22° C | 69% | 989.7 hPa | 0 mm | - | 377 W/m² | - |
| 1777303502 | 22.78° C | 69% | 989.8 hPa | 0 mm | - | 386 W/m² | - |
| 1777303202 | 22.22° C | 69% | 989.8 hPa | 0 mm | - | 435 W/m² | - |
| 1777302902 | 22.22° C | 69% | 989.8 hPa | 0 mm | - | 428 W/m² | - |
| 1777302603 | 22.22° C | 70% | 989.8 hPa | 0 mm | - | 446 W/m² | - |
| 1777302303 | 21.67° C | 71% | 989.9 hPa | 0 mm | - | 477 W/m² | - |
| 1777302002 | 21.67° C | 72% | 989.9 hPa | 0 mm | - | 418 W/m² | - |
| 1777301702 | 21.11° C | 72% | 989.9 hPa | 0 mm | - | 361 W/m² | - |
| 1777301402 | 21.11° C | 73% | 989.9 hPa | 0 mm | - | 341 W/m² | - |
| 1777300803 | 20.56° C | 73% | 990.1 hPa | 0 mm | - | 300 W/m² | - |
| 1777300502 | 20.56° C | 73% | 990.1 hPa | 0 mm | - | 283 W/m² | - |
| 1777300203 | 20° C | 73% | 990 hPa | 0 mm | - | 274 W/m² | - |
| 1777299903 | 20° C | 74% | 989.8 hPa | 0 mm | - | 261 W/m² | - |
| 1777299603 | 20° C | 74% | 989.9 hPa | 0 mm | - | 218 W/m² | - |
| 1777299303 | 20° C | 74% | 989.7 hPa | 0 mm | - | 182 W/m² | - |
| 1777299002 | 20° C | 74% | 989.7 hPa | 0 mm | - | 151 W/m² | - |
| 1777298702 | 20° C | 73% | 989.8 hPa | 0 mm | - | 132 W/m² | - |
* Rain latest hour (hover to see other rain measurements)
** Current wind speed in m/s (hover to see current wind gust speed)